| time (UTC) | temp C | wind direction | speed KPH | gust KPH | rain 1hr cm | rain 24hr cm | rain mn cm | humidity % | barometer mb |
| 20260507202051 | 15 | 320 | 19.3 | 0.0 | 0.00 | 0.00 | 0.00 | 51 | |
| 20260507192151 | 15 | 270 | 8.0 | 0.0 | 0.00 | 0.00 | 0.00 | 51 | |
| 20260507182048 | 16 | 300 | 8.0 | 0.0 | 0.00 | 0.00 | 0.00 | 48 | |
| 20260507172048 | 17 | 290 | 19.3 | 0.0 | 0.00 | 0.00 | 0.00 | 42 | |
| 20260507162351 | 17 | 330 | 11.3 | 0.0 | 0.00 | 0.00 | 0.00 | 48 | |
| 20260507152049 | 17 | 360 | 14.5 | 0.0 | 0.00 | 0.00 | 0.00 | 51 | |
| 20260507142051 | 18 | 220 | 14.5 | 0.0 | 0.00 | 0.00 | 0.00 | 39 | |
| 20260507132151 | 17 | 180 | 14.5 | 0.0 | 0.00 | 0.00 | 0.00 | 55 | |
| 20260507122048 | 18 | 230 | 25.7 | 0.0 | 0.00 | 0.00 | 0.00 | 37 | |
| 20260507112107 | 18 | 190 | 19.3 | 0.0 | 0.00 | 0.00 | 0.00 | 42 | |
| 20260507102249 | 17 | 210 | 14.5 | 0.0 | 0.00 | 0.00 | 0.00 | 48 | |
| 20260507092048 | 16 | 240 | 14.5 | 0.0 | 0.00 | 0.00 | 0.00 | 51 | |
| 20260507082048 | 15 | 280 | 22.5 | 0.0 | 0.00 | 0.00 | 0.00 | 62 | |
| 20260507072049 | 13 | 240 | 22.5 | 0.0 | 0.00 | 0.00 | 0.00 | 62 | |
| 20260507062049 | 12 | 260 | 11.3 | 0.0 | 0.00 | 0.00 | 0.00 | 71 | |
| 20260507052048 | 12 | 240 | 22.5 | 0.0 | 0.00 | 0.00 | 0.00 | 71 | |
| 20260507042251 | 12 | 230 | 14.5 | 0.0 | 0.00 | 0.00 | 0.00 | 81 | |
| 20260507032048 | 12 | 240 | 11.3 | 0.0 | 0.00 | 0.00 | 0.00 | 81 | |
| 20260507022046 | 12 | 230 | 11.3 | 0.0 | 0.00 | 0.00 | 0.00 | 81 | |
| 20260507012148 | 12 | 240 | 11.3 | 0.0 | 0.00 | 0.00 | 0.00 | 87 | |
| 20260507002048 | 12 | 260 | 19.3 | 0.0 | 0.00 | 0.00 | 0.00 | 76 | |
| 20260506232049 | 13 | 290 | 19.3 | 0.0 | 0.00 | 0.00 | 0.00 | 71 | |
| 20260506222320 | 15 | 260 | 14.5 | 0.0 | 0.00 | 0.00 | 0.00 | 72 | |
| 20260506212110 | 16 | 140 | 11.3 | 0.0 | 0.00 | 0.00 | 0.00 | 59 |